Temperature
23 22 22 21 20 20 20 20 20 19 19 19 18 18 18 18 18 18 18 18 17 17 18 18 17 17 17 17 17 17 17 17 17 17 18 18 18 18 17 17 18 18 17
24 22 22 21 21 20 20 20 20 20 19 19 19 18 18 18 18 18 18 18 17 17 18 18 17 17 17 17 17 17 17 17 17 17 18 18 18 18 18 18 17 17 17
24 23 22 22 21 21 20 20 20 20 20 19 19 18 18 18 18 18 18 18 18 18 18 18 17 17 17 17 17 17 17 17 17 17 18 18 19 18 18 18 17 17 17
25 23 22 22 21 21 21 20 20 20 20 19 19 18 18 18 18 18 18 18 18 18 18 18 18 18 17 18 17 17 17 17 17 17 17 17 18 18 18 18 18 18 17
25 24 23 22 22 21 21 20 20 20 20 20 19 19 18 18 18 18 18 18 18 18 18 18 18 18 18 18 18 17 17 17 17 17 17 17 17 17 18 18 18 18 18
26 24 23 23 22 21 21 20 20 20 20 20 19 19 19 19 18 18 18 18 18 18 18 18 18 18 18 18 18 18 18 17 17 17 17 17 17 17 18 18 18 18 18
26 25 24 23 22 21 21 20 20 20 20 20 19 19 19 19 19 18 18 18 18 18 18 18 18 18 18 18 18 18 17 17 17 17 17 17 17 17 17 18 18 18 18
26 25 24 23 22 22 21 21 20 20 20 20 20 20 19 19 18 18 18 18 18 18 18 18 17 18 18 17 17 17 17 17 17 17 17 17 17 17 17 17 17 18 18
26 25 24 23 22 22 21 21 20 20 20 20 20 20 20 19 19 18 18 18 18 18 17 17 17 18 17 17 17 17 17 17 17 17 17 17 17 17 17 17 17 17 18
26 25 24 23 22 22 21 21 20 20 20 20 20 20 20 20 19 19 18 18 18 18 17 17 17 17 17 17 17 17 17 17 17 17 17 17 17 17 16 16 16 16 17
26 25 24 23 22 22 21 21 20 20 20 20 20 20 20 20 20 19 19 18 18 18 18 17 17 17 17 17 17 17 16 16 16 16 16 16 16 16 16 16 16 16 16
25 24 23 23 22 22 21 21 20 20 20 20 20 20 20 19 19 19 19 18 18 18 18 18 17 17 17 17 17 17 16 16 16 16 16 16 16 16 16 16 16 16 16
24 23 23 22 22 21 21 20 20 20 20 19 19 19 19 19 19 19 18 18 18 18 18 18 17 17 17 17 16 16 16 16 16 16 16 15 15 15 15 15 15 15 16
23 23 22 21 21 21 20 20 20 20 19 19 19 19 19 19 19 18 18 18 18 18 17 17 17 17 17 16 16 16 16 16 15 15 15 15 15 15 15 15 15 15 15
22 22 21 21 20 20 20 20 20 19 19 19 19 19 19 19 18 18 18 18 18 17 17 17 17 17 16 16 16 16 16 15 15 15 15 15 15 15 15 15 15 15 15
22 21 21 20 20 20 20 19 19 19 19 19 19 19 19 19 18 18 18 18 18 17 17 17 17 16 16 16 16 16 15 15 15 15 15 15 15 15 15 15 15 15 14
21 20 20 20 19 19 19 19 19 19 19 19 18 18 18 18 18 18 18 18 17 17 17 17 16 16 16 16 16 16 15 15 15 15 15 15 15 15 14 15 15 14 14
20 20 19 19 19 19 19 19 18 18 18 18 18 18 18 18 17 17 17 17 17 17 16 16 16 16 16 16 16 16 15 15 14 14 14 14 14 14 14 14 14 14 14
19 19 19 19 19 18 18 18 18 18 18 18 18 18 18 17 17 17 17 16 16 16 16 15 15 15 15 15 16 15 15 14 14 14 14 14 14 14 14 14 13 13 13
18 18 18 18 18 18 18 18 18 18 17 17 17 17 17 17 16 16 16 16 16 16 15 15 15 15 15 15 15 15 14 14 14 14 14 14 14 14 14 13 13 13 13
17 17 17 17 17 17 17 17 17 17 17 17 17 17 16 16 16 16 16 16 15 15 15 14 14 14 14 14 14 14 14 14 13 13 13 13 13 13 13 13 13 13 13
17 17 17 17 17 17 17 16 16 16 16 16 16 16 16 16 15 15 15 15 15 14 14 14 14 14 14 14 14 14 14 13 13 13 13 13 13 13 13 13 13 13 12
16 16 16 16 16 16 16 16 16 16 16 15 15 15 15 15 15 15 15 14 14 14 14 14 14 14 13 13 13 13 13 13 12 12 12 13 13 12 12 12 12 12 11
15 15 15 16 16 15 15 15 15 15 15 15 15 15 15 14 14 14 14 14 14 14 14 14 13 13 13 13 13 13 12 12 12 12 12 12 12 12 11 11 11 11 11
15 15 15 15 15 15 15 15 15 15 15 14 14 14 14 14 13 13 13 13 13 13 13 13 13 13 12 12 12 12 12 12 12 11 11 11 11 11 11 10 10 10 10
15 15 15 15 15 14 14 14 14 14 14 14 14 14 14 13 13 13 13 13 13 13 13 13 12 12 12 12 12 12 12 12 11 11 11 11 11 10 10 10 10 10 10
Wind_Speed
14 13 12 12 11 11 11 10 10 9 7 6 6 6 5 5 4 4 5 5 4 4 4 3 3 3 3 3 3 3 3 3 2 2 2 3 3 3 3 3 3 4 4
14 14 14 13 13 13 12 11 11 10 9 7 6 5 5 5 5 4 4 5 4 4 5 4 4 3 3 3 4 4 3 3 3 3 3 2 3 3 3 3 3 4 4
16 16 15 15 14 13 13 12 12 12 11 9 7 6 5 5 5 5 5 5 5 5 4 4 3 3 4 4 4 4 5 4 4 3 3 3 2 1 3 3 3 3 3
15 16 16 16 16 15 13 13 12 12 11 11 9 9 7 6 6 5 5 5 5 5 5 5 4 4 4 4 5 5 4 5 4 4 4 4 3 3 2 3 3 3 3
15 16 17 17 16 15 14 13 13 12 12 12 11 10 9 7 6 5 5 5 5 6 5 5 4 4 4 4 4 3 5 4 5 4 4 4 4 6 5 4 3 3 3
14 15 15 16 16 15 15 14 14 13 13 13 12 11 10 8 7 7 6 6 5 5 6 5 5 5 4 4 4 4 5 4 4 5 4 4 4 4 5 5 5 4 3
12 13 15 16 16 17 16 15 15 14 14 13 12 12 11 10 9 8 7 6 5 5 5 5 5 4 4 4 4 4 4 5 5 5 5 4 4 4 5 5 5 5 4
11 12 14 15 15 17 17 16 16 14 14 13 12 11 11 9 8 8 7 7 5 5 5 5 5 5 5 4 4 4 4 3 4 5 4 4 4 5 5 5 5 5 5
8 9 11 13 14 15 16 16 15 14 14 13 12 11 11 10 9 8 8 7 6 5 5 6 5 5 5 4 4 4 4 4 5 5 5 5 4 4 4 5 5 6 6
7 9 9 11 12 13 14 15 15 14 14 13 12 11 11 10 9 9 8 7 6 5 5 6 5 5 5 5 5 4 4 4 4 4 4 5 4 4 4 5 5 5 6
5 7 8 9 11 12 13 14 14 14 13 13 12 11 11 10 10 9 8 8 7 7 6 6 6 5 5 5 4 4 4 5 5 5 5 5 5 5 4 4 5 5 5
3 5 7 8 9 11 12 12 13 13 13 12 12 11 10 10 10 9 9 8 8 8 7 7 6 6 5 5 5 5 5 5 5 5 5 5 5 5 5 5 5 5 5
3 4 6 7 8 9 10 11 12 12 12 12 12 11 11 11 10 9 9 9 8 8 7 7 7 6 6 6 5 5 5 5 6 5 6 6 6 6 5 6 6 5 5
3 4 5 6 7 7 9 10 10 10 11 11 12 12 12 11 11 10 9 9 9 8 8 7 7 7 7 7 6 6 6 6 6 6 6 6 7 7 6 6 6 6 6
4 4 5 6 7 7 8 9 9 10 10 11 11 11 11 10 10 9 9 9 9 9 8 8 8 8 7 7 6 6 7 6 6 6 6 6 5 5 5 6 5 6 6
5 5 5 6 7 7 8 8 9 9 10 10 11 10 10 10 10 9 9 9 9 9 9 9 8 9 7 4 5 7 7 7 7 6 6 5 5 4 4 4 5 6 7
4 5 5 5 6 7 7 7 7 8 9 10 10 10 10 10 10 9 9 9 9 9 9 9 9 9 7 5 5 6 7 7 7 6 6 5 4 4 4 4 6 5 6
3 3 3 4 5 5 6 6 6 7 8 9 9 9 9 9 9 9 8 8 7 7 7 8 8 8 7 6 6 7 8 7 6 6 5 5 4 4 4 4 4 5 5
2 2 2 2 3 4 5 5 5 5 7 8 8 8 8 8 8 8 8 7 6 6 7 7 7 7 6 6 7 7 6 6 6 6 5 5 4 1 2 4 4 5 5
1 1 1 2 3 3 4 5 4 4 5 6 7 7 7 7 7 7 6 6 6 6 6 5 6 6 6 5 6 6 6 5 5 4 3 2 2 0 1 4 4 5 5
1 1 2 2 2 3 4 4 4 4 4 4 5 6 6 6 6 6 5 6 5 5 5 5 4 4 4 4 5 5 5 5 4 3 2 1 3 2 1 3 3 4 4
2 2 2 2 2 2 3 3 3 2 2 3 5 5 5 5 5 5 5 5 5 5 5 4 3 3 2 2 3 5 5 4 4 3 2 1 4 2 2 2 1 3 4
2 2 3 3 2 2 2 3 2 2 3 3 4 4 5 4 4 5 5 5 5 4 4 4 3 3 2 2 4 4 4 2 3 1 3 2 3 2 2 2 3 4 3
3 3 3 3 3 2 2 2 2 2 3 3 3 4 5 5 5 4 4 4 4 4 4 4 3 3 3 2 2 2 3 4 3 2 3 5 4 3 1 1 2 3 2
2 3 3 3 3 3 2 1 2 3 3 3 3 4 4 4 5 4 3 4 2 2 3 3 3 3 3 1 2 1 2 1 2 2 2 2 1 1 1 1 2 2 2
3 3 3 3 3 3 2 2 2 3 4 4 3 3 3 4 5 5 4 4 3 4 3 1 1 2 3 5 4 3 3 3 1 2 2 1 1 1 1 2 2 2 2
Wind_Direction
191 188 191 191 188 187 187 191 192 186 188 188 191 187 190 192 187 186 178 184 194 189 204 218 190 224 219 225 225 225 219 233 225 236 244 228 225 224 236 236 241 233 233
192 190 193 194 193 191 191 192 193 191 195 193 194 195 197 198 191 189 175 193 201 210 204 216 224 217 216 224 228 226 242 240 224 242 252 237 208 215 214 220 220 236 235
197 193 195 197 197 196 195 196 196 193 198 194 190 189 187 201 191 191 187 194 204 209 224 216 229 231 233 222 229 229 232 242 238 243 259 269 255 255 202 217 219 231 244
200 197 198 199 199 198 194 195 195 195 194 193 197 196 198 202 197 192 186 191 200 208 208 216 223 234 243 232 235 227 236 242 249 240 242 263 290 270 240 221 213 224 242
203 201 201 200 200 197 194 193 193 195 194 195 197 201 208 206 196 190 185 200 196 206 212 216 223 227 237 238 248 244 242 241 248 253 245 244 244 251 261 261 258 247 243
204 202 201 198 199 196 193 193 191 194 194 195 198 202 206 205 200 196 193 198 198 200 205 212 222 230 236 233 236 237 232 242 251 257 251 250 248 246 249 252 249 252 252
204 200 199 198 196 194 193 193 192 194 194 196 200 202 205 205 206 206 203 209 206 202 205 214 218 232 235 241 245 238 243 235 238 244 248 251 250 258 261 261 261 261 254
203 200 197 196 195 195 194 193 191 191 192 194 199 203 204 207 209 211 216 210 216 213 200 210 219 227 231 235 235 242 234 232 238 242 253 257 254 253 257 261 263 260 254
199 196 193 193 194 196 195 193 190 190 192 194 195 199 203 208 209 205 212 215 215 214 205 212 218 223 226 232 236 241 241 235 238 236 229 243 250 255 258 257 260 266 267
195 191 189 190 192 194 194 193 191 193 193 194 197 197 200 203 206 208 208 211 210 213 215 217 219 220 222 222 230 234 234 239 243 255 259 254 256 255 250 249 252 257 263
186 186 184 186 188 188 188 189 190 193 194 195 196 198 196 198 201 203 206 207 207 205 213 217 220 221 221 221 223 236 234 239 244 248 250 255 262 260 253 249 249 251 256
186 184 181 180 185 188 188 189 191 192 193 192 193 195 194 195 198 201 206 207 209 210 210 213 216 220 219 222 225 235 237 239 244 250 257 260 258 258 260 257 256 256 251
193 188 183 183 185 188 189 189 192 189 190 189 191 193 196 195 198 200 202 207 210 212 213 212 216 221 223 225 229 233 238 240 244 248 252 256 259 261 260 257 257 256 250
212 203 193 190 186 186 188 188 189 187 188 190 191 193 197 197 197 198 200 203 208 212 215 217 219 224 227 228 231 234 237 241 247 252 258 261 259 259 258 254 255 258 255
221 211 204 196 191 189 188 188 189 190 191 191 193 195 195 195 197 199 202 203 207 211 212 217 221 226 228 229 229 236 237 239 245 249 255 260 267 287 275 266 260 258 255
230 223 211 202 200 199 195 188 192 191 191 195 196 195 193 194 197 198 199 203 206 212 211 216 222 229 234 207 222 242 243 243 246 252 255 253 241 239 243 257 272 277 263
236 232 227 213 206 203 197 192 193 193 192 196 196 195 195 197 200 201 200 204 208 211 213 217 221 227 226 204 214 238 245 246 250 251 253 259 258 248 251 231 225 245 253
247 239 231 214 205 199 190 189 187 192 196 197 196 193 195 199 202 205 206 208 209 211 216 220 221 225 221 196 205 225 237 248 250 249 246 249 253 259 261 254 249 248 247
242 243 236 216 191 186 181 178 180 186 193 196 196 196 195 199 201 204 206 207 209 213 218 223 226 229 224 196 202 222 237 242 246 245 242 243 247 310 292 252 252 255 253
219 212 197 175 163 168 169 169 173 176 186 193 192 192 193 194 199 202 201 202 206 214 221 225 230 230 229 201 199 220 235 240 245 239 231 210 218 226 266 240 248 255 263
198 185 157 148 150 156 159 162 165 176 185 186 181 185 187 187 195 194 198 200 203 206 214 216 220 226 225 192 186 218 232 236 241 235 231 193 124 133 228 255 257 269 276
186 174 154 145 146 154 159 161 163 165 167 173 177 184 188 192 188 184 192 197 196 197 200 196 207 207 201 180 184 206 230 255 231 231 230 149 123 145 214 245 279 273 264
186 188 171 155 158 169 172 172 165 166 165 166 171 177 184 188 189 190 188 194 199 203 194 196 201 198 186 156 158 181 199 226 224 204 86 112 155 176 201 200 229 236 250
193 192 176 166 169 174 175 181 171 162 158 160 170 172 174 179 179 187 191 200 201 200 199 200 199 183 167 162 165 177 177 173 180 154 141 164 189 206 170 210 234 254 270
200 193 180 174 176 173 170 183 169 165 165 165 174 177 173 171 170 172 177 192 188 193 201 200 194 185 186 144 90 168 188 200 136 145 190 186 177 191 210 244 264 267 267
205 192 176 169 163 157 164 180 176 172 172 173 181 184 177 171 173 167 154 87 98 96 95 75 189 147 104 115 104 83 74 79 127 217 208 221 256 261 265 277 277 278 282
Height
1523 1526 1529 1531 1533 1535 1536 1538 1540 1542 1543 1545 1546 1548 1549 1550 1551 1552 1553 1554 1555 1557 1557 1560 1560 1560 1562 1562 1562 1562 1562 1563 1563 1564 1564 1564 1564 1564 1563 1564 1564 1564 1564
1520 1523 1526 1528 1530 1531 1533 1536 1538 1540 1542 1543 1545 1547 1548 1550 1551 1552 1552 1554 1555 1556 1558 1558 1559 1560 1560 1560 1560 1560 1561 1562 1562 1562 1563 1562 1563 1562 1562 1562 1562 1562 1562
1515 1519 1522 1524 1527 1529 1531 1533 1536 1538 1540 1542 1544 1546 1547 1548 1550 1551 1552 1553 1554 1555 1556 1557 1558 1558 1558 1559 1558 1559 1559 1560 1561 1561 1562 1561 1560 1561 1561 1560 1560 1559 1559
1511 1515 1517 1520 1523 1525 1528 1531 1533 1535 1538 1540 1542 1544 1546 1547 1548 1550 1551 1552 1552 1554 1555 1555 1556 1556 1557 1557 1557 1558 1558 1558 1559 1559 1558 1559 1559 1559 1559 1559 1558 1557 1557
1506 1509 1512 1515 1519 1522 1525 1527 1530 1533 1535 1537 1540 1542 1544 1546 1547 1548 1550 1550 1551 1552 1553 1554 1554 1554 1555 1555 1555 1555 1556 1556 1556 1557 1557 1557 1556 1557 1557 1556 1556 1556 1555
1502 1505 1508 1512 1515 1519 1522 1524 1526 1529 1532 1534 1537 1539 1541 1543 1545 1546 1548 1549 1550 1550 1551 1551 1552 1552 1553 1553 1553 1552 1553 1553 1553 1554 1554 1554 1554 1554 1554 1554 1553 1553 1553
1497 1500 1504 1507 1510 1514 1517 1520 1523 1525 1528 1531 1534 1536 1538 1541 1542 1544 1546 1547 1548 1549 1549 1550 1550 1550 1550 1551 1551 1550 1551 1551 1551 1551 1551 1551 1551 1551 1551 1551 1551 1550 1550
1492 1495 1499 1502 1506 1510 1513 1516 1518 1521 1524 1527 1530 1533 1535 1538 1540 1542 1544 1545 1546 1547 1547 1548 1548 1548 1548 1549 1548 1549 1548 1548 1548 1548 1548 1548 1548 1548 1548 1549 1548 1548 1547
1489 1492 1495 1498 1502 1505 1508 1511 1514 1517 1520 1524 1527 1530 1532 1534 1537 1539 1540 1542 1543 1545 1545 1546 1546 1546 1546 1546 1546 1546 1546 1546 1546 1546 1545 1545 1545 1545 1545 1545 1545 1546 1544
1487 1489 1492 1495 1498 1501 1505 1508 1511 1513 1516 1520 1523 1526 1528 1531 1533 1535 1537 1539 1540 1541 1542 1543 1544 1544 1544 1544 1544 1544 1543 1543 1543 1543 1542 1542 1543 1542 1542 1542 1542 1542 1542
1484 1487 1489 1492 1495 1498 1501 1504 1507 1510 1513 1516 1519 1522 1525 1527 1529 1531 1533 1535 1537 1538 1539 1540 1541 1541 1541 1541 1541 1541 1541 1541 1540 1540 1540 1539 1539 1539 1539 1539 1539 1538 1538
1483 1485 1487 1490 1492 1495 1498 1501 1504 1507 1509 1512 1515 1518 1521 1523 1526 1528 1530 1532 1533 1535 1536 1537 1537 1538 1538 1538 1538 1538 1538 1538 1538 1537 1537 1537 1536 1536 1535 1535 1535 1535 1535
1482 1484 1485 1487 1489 1492 1495 1498 1501 1503 1506 1509 1512 1515 1517 1520 1522 1524 1527 1529 1530 1531 1533 1533 1534 1535 1535 1535 1535 1535 1535 1535 1535 1534 1534 1533 1533 1532 1532 1531 1532 1532 1532
1481 1482 1484 1485 1487 1489 1492 1494 1497 1500 1503 1506 1508 1511 1513 1516 1519 1521 1523 1525 1527 1528 1529 1530 1530 1531 1532 1532 1532 1531 1531 1531 1531 1531 1531 1530 1529 1529 1528 1528 1528 1528 1528
1480 1481 1482 1483 1485 1486 1488 1491 1494 1497 1500 1502 1505 1507 1510 1513 1515 1517 1519 1520 1522 1524 1525 1526 1526 1527 1528 1528 1527 1527 1527 1527 1527 1527 1526 1526 1525 1524 1524 1524 1524 1524 1524
1478 1479 1480 1481 1482 1483 1486 1488 1491 1493 1496 1498 1501 1504 1506 1508 1510 1512 1514 1516 1517 1519 1520 1521 1522 1522 1524 1523 1523 1523 1523 1523 1523 1523 1522 1521 1520 1519 1519 1519 1519 1520 1520
1476 1477 1478 1479 1480 1481 1483 1485 1487 1490 1492 1494 1497 1500 1502 1504 1506 1508 1509 1511 1512 1514 1515 1515 1516 1517 1518 1518 1519 1519 1519 1519 1519 1519 1518 1518 1517 1516 1516 1515 1515 1515 1515
1474 1475 1475 1476 1477 1479 1480 1482 1484 1486 1488 1491 1493 1495 1498 1500 1502 1503 1505 1506 1508 1509 1510 1510 1511 1512 1513 1513 1514 1514 1515 1515 1515 1515 1514 1513 1513 1513 1512 1512 1512 1511 1511
1472 1472 1473 1474 1475 1476 1477 1479 1481 1483 1485 1487 1489 1491 1493 1495 1497 1499 1500 1502 1503 1504 1505 1506 1507 1508 1508 1509 1510 1510 1511 1511 1511 1511 1511 1510 1509 1509 1508 1508 1508 1507 1506
1470 1470 1471 1471 1472 1474 1475 1476 1478 1479 1481 1483 1485 1487 1489 1491 1492 1494 1496 1497 1498 1500 1501 1502 1503 1503 1504 1505 1505 1506 1507 1507 1507 1508 1507 1506 1506 1505 1505 1505 1504 1503 1503
1467 1468 1468 1469 1470 1472 1473 1474 1476 1477 1478 1480 1482 1484 1486 1487 1488 1490 1491 1492 1494 1495 1497 1498 1499 1499 1499 1500 1501 1501 1502 1503 1504 1504 1504 1503 1502 1502 1501 1501 1501 1500 1500
1465 1465 1466 1467 1469 1470 1471 1472 1473 1474 1476 1477 1478 1480 1482 1483 1485 1486 1488 1489 1490 1492 1493 1494 1495 1495 1495 1496 1496 1497 1498 1499 1500 1500 1501 1500 1499 1499 1499 1498 1498 1497 1497
1463 1464 1465 1466 1467 1468 1469 1470 1471 1472 1473 1474 1475 1477 1479 1480 1481 1482 1484 1486 1487 1488 1489 1490 1491 1492 1492 1492 1493 1494 1495 1495 1496 1497 1497 1497 1497 1496 1496 1496 1495 1494 1495
1461 1462 1463 1464 1465 1467 1468 1469 1469 1470 1471 1472 1473 1474 1476 1477 1478 1480 1482 1483 1484 1485 1486 1487 1488 1489 1489 1490 1491 1491 1492 1492 1493 1493 1493 1494 1494 1494 1494 1493 1493 1492 1492
1459 1460 1461 1462 1463 1465 1466 1467 1467 1467 1468 1470 1471 1472 1474 1475 1476 1477 1479 1480 1481 1482 1483 1484 1485 1486 1487 1487 1488 1489 1490 1490 1491 1491 1492 1492 1492 1492 1492 1491 1491 1490 1489
1458 1458 1459 1460 1462 1463 1464 1465 1465 1466 1467 1468 1469 1471 1472 1473 1474 1476 1477 1478 1479 1480 1481 1482 1483 1484 1485 1485 1486 1487 1488 1489 1489 1490 1491 1491 1491 1490 1490 1489 1489 1488 1487